Home > Weather > Cambridge > Past weeks

Flag for U.S.A. Weather for the Past 2 Weeks in Cambridge, Massachusetts, U.S.A.

Now
26 °F

Passing clouds.


Feels Like: 22 °F
Forecast: 17 / 34 °F
Wind: 3 mph from Northeast

Location: Logan International Airport

Current Time: Feb 9, 2016 at 9:49:10 PM

Latest Report: Feb 9, 2016 at 8:54 PM


Visibility: 10 mi

Pressure: 29.62 "Hg

Humidity: 69%

Dew point: 17 °F

Location of CambridgeLocation

Historic Weather in Cambridge — Graph

°F

Cambridge Temperature Yesterday

Maximum temperature yesterday: 38 °F (at 12:54 AM)
Minimum temperature yesterday: 18 °F (at 10:54 AM)
Average temperature yesterday: 24 °F

High & Low Weather Summary for the Past Weeks

 TemperatureHumidityPressure
High64 °F (Feb 1, 12:54 PM)100% (Feb 5, 12:54 PM)30.40 "Hg (Feb 5, 12:54 PM)
Low18 °F (Feb 8, 10:54 AM)31% (Feb 1, 3:54 PM)29.37 "Hg (Jan 29, 12:54 PM)
Average38 °F67%29.95 "Hg
* Reported Jan 25 7:54 PM — Feb 9 7:54 PM, Cambridge, Weather by CustomWeather, © 2016

Note: Actual official high and low records may vary slightly from our data, if they occured in-between our weather recording intervals... More about our weather records

Advertising

Cambridge Weather History for the Previous 24 Hours

 ConditionsComfort  
Time TempWeatherWind HumidityBarometerVisibility
7:54 PM
Tue, Feb 9
28 °FPartly cloudy.7 mph66%29.62 "Hg10 mi
6:54 PM29 °FMostly cloudy.7 mph64%29.62 "Hg10 mi
5:54 PM29 °FPassing clouds.6 mph64%29.62 "Hg10 mi
4:54 PM29 °FMostly cloudy.No wind64%29.60 "Hg10 mi
3:54 PM29 °FMostly cloudy.3 mph64%29.59 "Hg10 mi
2:54 PM28 °FOvercast.No wind69%29.59 "Hg10 mi
12:54 PM26 °FOvercast.6 mph71%29.61 "Hg10 mi
11:54 AM25 °FOvercast.7 mph75%29.65 "Hg10 mi
10:54 AM24 °FOvercast.8 mph75%29.68 "Hg10 mi
9:54 AM23 °FMostly cloudy.6 mph74%29.71 "Hg10 mi
8:54 AM22 °FMostly cloudy.9 mph78%29.72 "Hg10 mi
7:54 AM21 °FOvercast.7 mph81%29.75 "Hg10 mi
6:54 AM20 °FMostly cloudy.15 mph82%29.67 "Hg10 mi
5:54 AM20 °FMostly cloudy.9 mph82%29.73 "Hg10 mi
5:03 AM19 °FMostly cloudy.12 mph86%29.74 "Hg10 mi
4:02 AM19 °FLight snow. Mostly cloudy.9 mph86%29.74 "Hg9 mi
2:54 AM20 °FLight snow. Overcast.10 mph82%29.76 "Hg9 mi
1:54 AM20 °FLight snow. Mostly cloudy.9 mph85%29.77 "Hg7 mi
12:54 AM20 °FLight snow. Overcast.9 mph85%29.77 "Hg7 mi
11:54 PM
Mon, Feb 8
21 °FLight snow. Overcast.10 mph81%29.79 "Hg4 mi
10:54 PM21 °FLight snow. Overcast.12 mph81%29.79 "Hg2 mi
9:54 PM20 °FLight snow. Ice fog.17 mph85%29.79 "Hg2 mi
Weather by CustomWeather, © 2016

See weather overviewHow to use our weather pages